FALCON 9 DEB (51154 NORAD) Tracking and Keplerian Element Data

This shows tracking and keplerian element data for the satellite.

Feedback or suggestion? Click here.




ElementValue
Catalog51154
NameFALCON 9 DEB
Epoch Orbit254
Epoch Day33.68821889
Epoch Year2022
RAAN199.6478
Inclination53.2139
Eccentricity0.0015467
Argument of Perigee250.1943
Mean Anonmoly109.7443
Mean Motion16.48749082
Decay Rate0.12594258
L11 51154U 22005BC 22033.68821889 .12594258 12502-4 14768-3 0 9994
L22 51154 53.2139 199.6478 0015467 250.1943 109.7443 16.48749082 2540



Live tracking and technical data element details for FALCON 9 DEB (NORAD 51154). FALCON 9 DEB can be tracked NOW for your location showing map with azimuth and elevation plus other details from your city location.







IsCatalogInMostPopularTable: catalog: 51154, numindb: 46
Update: records affected: 1



GetName: 51154 FALCON 9 DEB

Hit Count: updated at: Mon, 05 Jun 2023 00:31:14 GMT